Wind_Speed
23 24 23 21 21 22 22 23 23 24 25 26 28 29 30 31 32 32 33 33 33 33 33 34 34 34 34 34 35 35 35 36 36 36 37 38 38 38 39 39 39 40 40 41 41 42 43 43 44 45 46 46 47 47 47 47 47 47 47 47 48 48 48 48 48 46 44 45 46 46 47 48 49 50 50 50 50 52 54 55 55 54 53 53 52
24 25 25 22 22 22 23 24 24 23 23 23 24 25 26 27 28 29 31 32 33 34 34 35 35 36 36 37 37 37 36 36 37 37 38 38 39 39 40 41 41 42 42 43 43 44 44 45 46 46 47 47 48 49 50 50 50 49 49 49 49 50 50 50 49 48 46 46 47 48 48 50 50 50 50 50 50 51 53 54 55 55 54 54 55
26 27 27 26 24 23 24 25 26 26 25 24 24 24 24 24 25 25 26 28 29 30 32 33 33 34 35 35 35 35 35 36 37 37 38 39 40 40 41 41 42 43 44 44 45 46 46 47 48 48 49 49 50 51 51 52 52 52 52 52 52 52 52 52 52 51 48 47 48 49 49 50 51 50 51 52 51 51 52 52 53 54 54 54 55
30 30 30 30 28 27 27 29 29 29 28 27 27 27 26 26 26 26 27 28 29 30 30 31 31 31 32 32 33 34 35 36 37 38 39 40 41 42 42 43 43 44 44 45 46 47 47 48 49 50 51 51 52 52 53 53 54 55 55 55 55 54 54 55 55 54 52 50 49 50 50 51 51 51 52 53 53 52 52 52 52 52 52 52 53
33 33 32 32 32 32 32 33 33 32 31 31 31 31 30 29 29 29 30 31 31 31 32 32 33 33 34 34 35 36 37 37 37 37 38 39 40 41 42 43 44 45 45 46 46 47 47 48 49 50 51 52 53 54 54 55 55 56 57 57 58 58 57 57 57 57 56 54 52 52 52 53 53 53 53 54 53 53 53 53 52 52 51 51 51
36 36 36 36 36 36 34 33 33 34 34 35 37 37 36 35 34 34 34 34 34 34 34 35 36 36 37 37 38 38 38 38 37 37 37 37 37 37 38 39 40 41 42 43 44 45 46 46 47 48 50 51 52 53 55 56 56 57 57 58 59 60 60 60 60 60 59 58 56 54 54 54 55 55 55 55 54 54 54 54 53 51 50 50 50
39 39 38 38 37 36 34 34 36 38 39 40 40 41 41 41 41 40 39 38 38 38 38 38 38 39 40 40 40 40 40 39 38 37 36 36 35 35 35 36 37 37 37 38 39 40 42 43 44 46 48 49 51 52 53 55 56 57 58 59 60 61 61 61 62 62 62 61 60 58 57 56 57 56 56 56 56 55 55 54 53 52 52 52 52
42 42 41 39 38 37 38 39 41 42 43 43 43 45 46 46 46 45 43 41 40 40 40 40 40 41 42 42 42 42 42 41 40 38 37 36 36 36 36 36 36 36 36 36 37 39 40 41 43 44 46 47 49 50 51 53 54 56 57 59 60 61 62 62 63 63 63 63 62 61 59 58 59 58 58 58 57 56 56 54 53 52 53 53 53
45 44 44 43 41 41 42 43 43 42 43 45 48 51 51 50 50 50 47 44 43 43 43 42 42 43 44 45 45 45 45 44 42 40 39 38 37 37 37 37 37 37 37 38 39 40 41 42 43 44 46 47 48 49 51 52 54 55 56 58 59 60 62 63 64 64 65 65 64 63 62 61 60 60 60 59 58 58 57 56 54 53 53 53 53
48 47 47 46 45 46 47 48 47 47 47 49 52 55 55 54 52 50 47 44 43 43 43 43 44 45 46 47 47 47 47 45 44 42 41 40 39 39 38 38 39 39 39 41 42 43 44 45 46 47 47 48 49 51 51 53 54 55 56 57 58 60 61 62 63 65 65 66 65 65 65 64 63 62 61 61 60 60 59 57 55 53 53 54 53
52 50 49 49 49 50 51 51 51 51 51 50 51 55 57 53 47 45 45 44 44 44 45 45 46 48 51 51 50 50 49 46 44 43 43 42 41 41 40 40 41 41 42 44 45 46 47 48 49 50 50 51 52 53 54 55 55 56 57 57 58 60 61 61 62 64 65 66 66 66 66 65 65 64 63 62 62 61 60 59 57 55 54 54 53
56 54 52 51 51 51 52 52 53 53 53 51 50 53 57 55 51 50 50 50 49 49 48 47 47 50 53 54 54 52 49 47 45 44 43 43 43 42 42 43 43 44 46 47 47 48 49 50 51 52 53 53 54 55 56 58 58 58 58 59 59 60 61 62 62 63 64 66 67 67 66 66 65 64 65 64 63 62 62 61 60 57 56 55 53
57 56 55 54 53 53 53 53 54 55 55 54 53 54 57 58 56 52 50 50 50 50 50 49 49 49 50 52 55 53 49 47 47 45 44 44 44 44 45 46 47 48 49 49 50 51 51 52 53 54 55 56 56 58 59 60 61 62 62 61 60 61 61 62 62 63 64 65 66 66 66 67 66 64 64 65 65 64 64 63 61 59 57 55 53
58 57 57 56 56 56 56 56 57 58 58 57 56 56 56 57 57 55 54 52 51 52 52 51 50 48 46 48 52 52 48 47 47 46 45 45 46 47 48 49 50 50 51 51 52 53 53 55 56 56 57 58 60 61 62 63 63 64 64 64 63 62 62 63 63 63 64 64 65 65 65 66 66 65 64 66 67 66 65 64 62 61 59 56 54
58 58 57 57 57 58 58 59 59 60 61 61 59 59 59 60 62 61 59 55 52 53 53 51 51 49 46 47 49 48 46 46 46 46 46 47 48 50 50 51 52 53 53 53 54 55 56 57 58 59 60 62 64 66 67 67 67 66 66 65 65 64 64 64 64 64 64 65 65 64 64 65 66 66 65 66 67 67 66 65 63 61 61 59 56
58 58 59 59 59 60 61 61 62 63 65 64 63 62 62 63 63 61 58 56 53 53 53 52 52 50 47 47 46 44 44 45 46 46 47 49 51 52 52 53 53 54 55 56 57 58 59 60 61 62 64 65 68 70 71 70 69 67 66 65 65 65 65 65 65 65 65 65 65 65 64 64 65 66 66 66 67 67 67 67 65 63 62 61 57
57 58 58 58 59 60 60 61 62 63 63 61 60 59 60 62 62 60 60 59 56 55 55 54 55 54 50 45 43 42 43 44 45 46 48 50 52 53 53 54 54 56 57 58 60 60 61 63 64 65 66 68 71 72 72 71 69 67 66 66 65 65 65 65 66 66 66 66 65 65 65 64 64 65 65 65 66 67 68 67 66 64 62 61 58
58 58 59 59 59 59 59 60 60 60 60 58 56 56 56 56 57 58 59 59 58 57 54 51 51 50 45 40 40 41 43 44 45 47 48 51 52 53 54 55 56 57 59 60 61 62 63 65 67 68 70 71 72 71 70 69 67 66 66 65 65 64 64 64 65 66 67 67 66 65 65 64 64 64 64 64 64 66 68 67 65 64 63 61 58
61 61 61 60 60 59 59 59 58 58 58 57 56 55 54 52 52 53 54 56 57 56 51 47 44 41 38 38 41 42 43 45 46 48 49 51 53 54 55 56 57 59 60 61 62 63 64 67 69 71 73 73 71 69 67 66 65 65 65 64 63 62 62 62 64 65 66 67 66 66 65 64 64 63 63 63 63 64 67 67 64 63 63 60 57
62 62 61 61 60 60 59 59 58 58 57 55 56 57 55 52 51 49 49 51 53 52 48 45 42 41 40 44 46 44 44 46 47 49 51 53 54 56 57 58 59 60 61 62 63 64 67 70 72 73 72 70 68 66 64 63 63 63 63 63 62 61 61 62 63 64 65 66 66 66 65 65 64 63 62 62 62 63 64 65 63 62 62 60 57
56 56 55 54 53 53 54 54 54 53 53 54 56 57 55 53 52 52 51 52 54 52 47 44 43 45 46 50 49 47 47 47 48 51 52 53 55 56 57 59 60 62 63 64 66 68 70 72 72 70 68 66 64 63 62 61 62 62 62 62 62 62 62 63 63 64 64 64 64 65 65 64 64 63 62 62 62 62 61 62 62 61 61 59 57
44 44 43 42 42 43 44 45 46 47 49 53 54 53 51 49 48 48 49 50 52 52 50 47 47 48 50 52 51 49 49 49 50 51 51 53 55 57 59 61 63 65 66 67 69 70 71 70 68 65 64 63 62 62 61 62 63 63 62 63 63 64 64 64 64 63 63 63 63 63 63 63 63 62 62 62 62 62 60 60 61 61 60 59 57
36 36 36 36 36 36 36 38 41 43 45 48 49 48 47 45 44 44 45 47 49 51 51 50 51 52 52 52 50 49 49 49 50 50 52 54 56 59 61 64 66 68 69 69 70 69 67 65 64 63 63 63 63 62 62 62 62 62 62 63 63 64 64 64 63 62 61 61 61 61 60 61 60 60 61 61 61 62 61 60 60 61 60 58 56
35 35 35 36 36 35 34 35 38 40 41 43 44 45 45 45 44 45 45 45 46 48 49 49 51 52 51 49 48 48 49 49 49 51 53 56 58 61 64 65 66 68 68 68 67 66 64 64 64 64 63 61 60 58 57 56 56 56 56 58 59 60 60 59 59 58 57 56 57 56 56 56 57 58 59 60 61 63 62 60 59 60 59 57 54
34 33 34 35 35 35 35 36 38 39 41 41 41 42 45 46 45 44 43 43 44 44 45 45 46 46 46 45 46 47 48 49 51 53 56 58 60 62 63 63 64 65 65 65 65 65 65 64 62 60 57 54 53 52 51 52 53 53 54 56 58 58 59 58 57 56 55 53 53 53 52 53 54 56 59 60 61 63 63 60 58 59 59 57 54
31 30 31 32 31 31 32 34 37 38 40 41 42 43 44 43 43 42 42 42 41 40 39 39 39 39 41 42 44 46 48 50 52 55 57 58 59 59 59 60 61 62 64 65 65 64 62 59 56 53 50 48 48 49 50 51 52 52 52 53 55 56 56 56 56 55 54 53 53 53 52 53 54 56 58 60 61 62 62 59 56 57 58 57 54
26 26 26 27 28 30 32 35 36 37 39 40 41 41 41 41 42 41 40 37 35 34 34 34 34 36 39 41 43 46 48 51 53 54 54 54 54 55 57 59 61 62 63 63 61 58 55 53 51 49 47 45 44 44 44 45 45 45 45 46 47 48 48 48 48 48 48 48 49 50 52 53 55 55 56 57 58 60 61 59 55 55 57 57 55
23 25 27 29 32 35 38 39 39 39 40 39 39 39 39 38 36 34 32 30 30 30 31 32 34 36 39 41 44 46 48 49 50 50 50 51 52 54 56 58 60 61 59 57 54 52 51 50 49 47 44 41 39 38 38 38 38 39 40 41 42 42 41 41 41 41 41 41 43 45 47 49 52 53 54 55 56 57 59 58 54 54 56 57 55
25 28 32 34 35 35 36 37 37 37 36 35 34 33 31 28 26 26 26 26 27 28 30 32 34 37 39 42 43 45 45 46 46 46 48 50 52 54 56 57 57 55 52 50 48 48 48 46 44 41 39 36 34 33 33 34 35 36 37 39 39 39 39 38 38 38 38 39 40 41 43 45 47 49 51 53 54 55 56 56 54 53 54 56 54
23 24 26 28 28 28 28 27 26 24 24 24 24 23 22 21 21 22 23 24 26 28 30 33 35 37 39 40 41 42 43 43 44 45 47 49 51 53 53 52 51 49 46 45 45 44 41 38 37 36 35 35 34 34 34 34 34 35 36 37 37 37 38 38 38 38 39 40 40 41 42 44 45 46 47 49 51 53 54 54 53 53 53 53 52
21 20 21 22 22 22 20 18 17 16 17 17 17 17 17 17 18 19 22 24 27 29 31 33 35 36 37 38 39 40 41 42 43 44 46 48 49 48 47 46 45 43 41 40 39 37 33 32 32 34 35 35 35 34 34 34 33 33 34 34 35 36 37 38 38 39 39 39 39 41 42 44 44 45 45 46 48 51 52 52 52 51 51 51 50
21 20 20 20 18 16 15 14 14 14 14 14 14 14 14 15 17 20 23 25 27 29 30 31 33 34 35 36 37 38 39 40 42 43 45 46 44 41 41 42 40 37 36 35 33 30 29 30 32 33 34 33 32 32 32 31 31 30 31 31 33 35 36 37 37 37 37 37 37 37 38 40 42 43 43 44 45 47 48 49 49 49 49 49 49
21 19 18 16 14 14 14 13 12 11 11 12 12 12 13 16 19 21 23 24 26 27 28 29 31 32 34 35 36 37 37 39 41 43 43 41 37 35 36 38 36 32 30 30 28 27 29 31 32 33 32 30 28 28 28 28 29 30 30 31 32 33 33 32 32 32 32 31 31 32 33 35 37 38 39 41 43 44 45 45 45 46 46 47 47
17 17 15 14 14 13 11 10 9 9 10 11 11 12 14 17 19 20 22 22 23 25 26 28 30 31 33 34 35 35 36 38 41 42 39 35 31 31 34 35 31 27 26 26 26 27 29 30 31 30 27 25 23 24 25 27 29 29 29 28 27 25 24 23 24 25 27 28 29 30 31 32 32 33 35 38 40 41 41 41 42 42 43 45 45
15 15 14 13 12 9 8 8 9 10 10 10 12 13 15 16 17 17 18 20 21 23 25 27 28 29 30 32 32 34 36 39 40 39 36 31 28 29 31 31 27 24 23 23 24 25 27 29 30 28 24 22 22 22 24 26 25 24 22 20 18 16 16 17 20 22 25 26 27 28 28 29 29 30 33 36 36 36 37 38 39 39 40 42 42
13 12 12 10 8 7 8 9 9 9 9 11 12 13 13 13 14 15 17 18 20 22 24 26 27 27 28 30 32 34 36 39 39 38 34 30 27 27 26 25 24 23 22 22 23 24 26 28 28 26 24 22 21 21 22 21 19 17 16 14 13 11 13 16 18 19 20 20 20 21 22 23 25 27 30 32 33 34 35 36 36 36 38 39 40
11 10 9 8 8 9 10 9 8 9 11 11 11 10 10 11 12 14 16 18 20 21 23 24 25 27 28 29 31 33 36 38 39 38 34 31 29 28 25 22 22 22 22 22 23 24 26 25 24 22 20 18 17 16 16 16 14 13 14 13 12 10 12 14 15 15 15 14 14 15 17 18 21 24 26 28 30 32 33 34 33 34 36 37 37
10 10 9 9 9 10 9 9 9 10 10 8 7 8 9 11 12 14 16 18 19 20 22 23 24 26 28 29 31 33 35 37 38 36 34 32 30 28 25 23 21 21 21 22 23 24 23 21 18 15 13 11 11 11 11 11 10 11 12 12 11 10 12 13 12 12 12 11 10 12 14 16 20 22 24 26 28 30 31 31 32 34 35 36 35
11 11 10 10 11 11 10 11 10 9 7 5 5 7 9 11 12 14 16 17 19 20 22 23 25 27 28 29 30 32 35 36 35 33 30 29 27 25 23 21 20 19 19 20 20 20 19 16 13 11 9 9 8 8 8 8 9 10 10 10 10 10 12 12 10 9 10 10 10 10 12 16 20 22 24 26 27 28 29 31 32 33 33 32 32
13 13 13 13 12 12 12 11 9 7 5 4 5 7 9 11 14 15 17 18 19 20 22 23 25 26 27 28 30 32 34 35 34 31 28 26 24 22 20 18 17 16 16 15 15 16 16 14 12 10 9 8 7 7 6 7 9 10 8 8 9 10 11 9 7 8 10 11 10 10 12 16 20 22 24 26 27 29 30 31 31 30 30 30 32
16 15 15 14 12 11 11 10 8 6 5 5 6 7 10 12 15 17 17 18 18 20 22 23 24 25 27 28 30 32 34 35 34 31 28 26 24 21 17 15 14 13 12 13 15 15 14 13 13 13 11 9 8 8 6 7 9 10 8 6 8 8 8 7 5 7 11 12 11 11 14 18 21 23 24 25 28 30 30 30 29 29 31 33 35
16 16 14 12 11 11 10 9 7 5 5 5 6 8 10 13 15 17 17 18 18 20 22 23 24 25 26 28 29 31 33 34 33 31 28 26 25 21 15 12 12 10 10 13 15 14 12 11 12 14 13 10 8 7 6 6 8 10 9 6 5 5 7 7 4 7 12 15 14 15 17 19 21 23 24 28 32 33 29 27 29 33 34 33 32
15 14 12 11 11 11 10 8 6 5 6 6 8 9 11 13 15 16 17 18 19 20 22 24 25 25 26 27 28 30 32 34 33 31 28 26 25 22 15 11 10 10 10 12 13 12 11 10 10 14 14 11 9 7 4 4 7 9 7 4 4 4 6 6 2 8 14 17 18 19 21 23 24 25 26 30 34 33 28 25 28 32 32 31 30
14 13 12 12 12 11 8 6 5 5 6 7 8 10 11 13 14 16 17 18 19 20 22 23 25 25 26 26 27 29 31 33 33 31 28 26 25 23 18 11 8 8 9 10 11 12 11 10 8 10 12 13 11 8 6 6 7 7 5 4 3 5 6 4 1 9 16 19 22 24 25 27 28 28 28 28 30 30 28 27 27 28 28 29 29
15 14 12 12 11 9 6 5 5 5 6 7 8 10 11 13 14 15 16 17 19 20 21 23 24 25 25 26 27 27 29 31 32 31 29 26 25 24 21 15 9 7 8 10 10 11 11 10 9 7 8 12 13 11 9 8 7 5 5 5 5 5 4 1 3 11 17 20 25 29 30 30 30 28 25 26 28 29 28 28 28 27 26 26 26
13 12 12 11 10 7 6 6 6 6 6 7 8 9 11 12 13 14 15 16 17 19 20 21 23 24 25 25 26 27 28 30 32 31 29 27 25 24 23 19 13 8 7 9 9 8 9 9 7 5 3 8 11 11 10 9 8 8 8 7 7 5 6 6 8 13 18 22 27 32 32 31 29 26 25 29 32 31 29 28 27 26 25 25 25
14 13 12 11 9 7 7 7 7 7 7 8 9 9 11 11 12 13 14 14 16 17 18 20 21 22 23 24 25 26 27 28 30 31 30 27 25 24 23 22 19 14 10 8 8 7 7 6 3 3 6 6 6 9 9 9 11 12 12 11 9 6 9 11 12 14 17 20 25 29 30 29 28 28 28 29 30 28 27 27 26 26 25 25 25
15 13 12 10 9 8 8 8 8 8 8 9 10 11 11 12 12 13 13 14 14 15 16 18 19 21 22 23 25 25 26 27 29 30 31 29 25 23 22 23 22 18 15 13 9 5 4 3 4 8 8 5 4 6 7 8 11 15 16 15 11 9 11 15 15 15 16 17 19 22 25 27 28 27 26 25 25 25 26 26 26 26 26 25 24
15 13 12 11 10 9 9 9 9 9 10 11 11 12 12 12 13 13 13 13 14 14 15 16 18 19 20 22 23 25 26 26 27 29 30 29 27 24 21 22 22 20 17 15 13 8 2 2 6 10 10 7 5 5 5 6 9 14 18 17 12 9 12 16 18 17 18 19 19 19 20 23 24 26 26 26 25 25 25 25 26 26 24 23 22
15 14 13 12 11 10 10 10 10 10 11 12 12 12 13 13 13 13 13 13 13 13 14 14 16 17 19 20 22 24 25 26 26 27 28 29 29 26 23 21 21 21 18 16 14 11 5 1 6 10 11 9 6 5 6 5 6 9 14 16 14 11 10 14 18 20 20 21 22 22 22 23 24 27 28 27 25 23 22 23 24 24 22 21 22
16 15 15 14 13 13 12 12 11 12 12 13 13 13 13 13 13 12 12 12 13 13 13 13 14 16 17 19 21 22 23 24 25 25 26 28 29 28 25 22 21 21 21 19 16 13 7 2 4 9 12 10 7 5 7 8 7 7 9 12 15 15 13 12 16 19 21 22 23 25 25 25 25 25 24 23 22 22 22 22 23 22 21 22 22
Wind_Direction
259 262 263 265 265 265 267 269 271 272 272 271 269 268 267 267 266 265 265 263 262 261 260 260 261 261 262 263 264 264 264 265 265 266 266 266 267 267 266 266 265 265 264 263 262 261 260 260 261 262 264 265 266 265 265 264 263 262 262 263 263 263 262 263 263 262 262 264 263 263 262 262 261 260 260 259 257 256 255 256 255 254 254 254 254
262 262 261 263 265 265 267 270 271 273 274 274 273 271 271 271 270 270 270 269 268 267 265 264 263 263 264 265 265 266 267 267 268 268 269 269 269 269 269 269 269 268 268 267 266 265 264 263 262 261 261 262 264 265 265 265 265 264 264 263 263 264 263 262 262 261 261 262 264 264 263 264 264 263 262 261 259 258 257 256 256 256 255 254 254
261 263 262 264 265 267 269 270 270 271 273 274 274 273 274 274 275 277 278 279 278 275 272 269 266 265 264 265 266 267 269 271 271 272 272 272 272 272 271 271 271 271 271 270 269 268 267 267 266 264 263 263 263 263 264 265 265 265 265 264 263 263 264 263 263 262 261 261 263 264 264 264 264 264 263 262 261 260 260 259 258 258 257 256 255
260 263 264 264 265 269 273 273 271 270 271 272 273 274 274 273 274 276 279 280 281 280 278 274 272 269 268 269 270 273 275 276 276 276 276 275 274 274 274 273 273 272 272 272 272 271 271 270 270 268 267 266 265 264 264 264 264 265 265 265 265 264 264 264 264 263 262 261 262 263 264 264 264 264 263 263 262 261 261 260 260 259 258 258 257
262 261 262 262 264 270 275 274 271 270 271 273 274 275 273 271 269 270 274 277 278 279 278 277 276 275 274 275 276 278 280 280 280 280 280 278 277 276 275 274 274 274 274 273 273 273 273 273 273 272 270 269 268 268 266 265 264 264 264 265 265 264 264 264 264 264 264 263 262 263 263 264 264 264 264 264 264 263 262 261 261 260 260 259 259
262 260 260 260 263 268 270 268 267 270 275 277 278 278 276 275 273 272 274 276 278 278 278 278 278 278 278 278 278 280 282 282 281 281 281 280 279 278 276 276 275 275 276 276 277 277 277 277 277 277 275 274 272 271 270 268 267 265 265 264 264 264 264 264 264 264 264 263 263 262 263 263 263 264 265 265 264 264 264 263 262 261 260 260 259
263 263 262 262 263 265 265 263 265 271 276 278 278 279 279 278 278 277 276 277 277 278 277 277 277 278 279 279 280 281 283 282 280 280 280 278 278 277 277 277 277 278 279 280 281 282 282 283 283 282 281 279 278 276 274 272 270 268 267 265 265 264 263 263 263 263 263 263 263 263 262 262 263 263 264 264 264 264 264 264 263 263 261 260 259
265 265 264 264 263 262 263 263 265 270 274 275 275 277 278 278 278 278 277 276 276 277 277 276 276 277 278 278 279 281 282 282 280 279 277 276 275 275 275 277 278 279 281 283 285 286 287 287 287 287 286 284 283 281 280 277 275 272 270 267 266 264 264 263 263 263 263 263 263 263 262 262 262 263 263 263 263 264 264 264 264 263 262 261 261
266 266 266 266 265 263 263 264 266 269 271 272 275 277 276 275 276 277 276 275 274 276 278 277 274 274 276 277 277 279 281 282 280 279 276 274 273 273 274 276 278 281 283 285 287 288 289 289 289 289 288 287 286 284 283 281 279 276 274 272 269 266 264 264 263 263 262 262 262 263 262 261 261 262 262 262 262 263 262 263 263 262 262 262 262
266 265 266 266 265 265 266 267 269 271 272 274 275 274 272 273 274 275 274 274 273 274 278 278 275 274 275 276 276 278 280 280 279 278 275 273 273 274 275 277 279 281 283 285 286 288 289 290 290 290 289 288 287 286 284 283 281 279 277 275 272 269 266 264 263 262 262 262 262 262 262 262 261 261 261 261 261 261 261 261 261 261 261 261 261
267 266 265 265 264 264 266 267 269 270 271 270 267 266 268 271 271 270 271 272 273 276 278 279 278 277 275 275 276 278 279 278 276 274 273 273 274 275 276 278 280 281 283 284 285 286 287 288 289 289 289 288 287 286 285 283 282 280 278 276 274 272 270 267 264 263 262 261 260 261 261 261 261 261 260 260 260 260 261 261 260 259 259 260 260
269 269 268 266 266 265 265 266 267 267 268 267 263 261 264 265 265 267 269 271 274 277 278 277 278 279 277 274 274 277 277 275 272 270 270 272 274 276 278 279 280 281 281 282 283 285 286 287 288 288 288 287 287 286 285 284 283 281 279 277 275 273 271 269 266 264 262 261 260 259 259 259 259 260 260 260 259 259 259 260 259 259 258 258 259
268 268 268 267 267 266 266 265 266 266 266 266 265 264 263 262 262 267 271 273 273 276 277 277 279 281 279 274 273 275 274 270 268 268 269 271 274 276 278 279 279 279 280 281 282 283 284 285 286 287 287 287 286 286 285 284 283 282 280 278 276 273 271 269 268 266 264 262 260 259 258 257 257 258 258 259 258 258 258 258 258 258 258 257 257
265 266 266 267 266 266 266 265 265 265 266 265 265 264 263 261 262 269 275 276 274 274 277 279 278 279 280 276 273 271 270 267 266 267 269 272 274 276 277 277 277 277 278 279 281 282 283 284 286 286 286 287 287 287 286 285 283 281 280 278 276 274 271 269 267 266 265 262 260 258 257 256 255 255 256 257 257 257 257 257 257 257 257 256 256
263 264 264 265 265 265 266 266 266 266 266 266 264 263 262 262 265 271 274 274 273 274 276 279 278 278 279 277 272 268 266 265 266 268 271 273 274 275 275 275 275 276 277 278 279 280 282 283 285 286 286 287 287 287 287 285 282 280 278 276 274 273 271 269 267 265 264 263 261 259 257 255 254 254 254 254 255 256 257 256 255 255 256 255 254
259 260 261 262 262 263 263 264 264 265 266 267 267 266 264 264 266 269 270 270 271 272 275 278 279 279 279 276 269 265 264 265 268 271 273 274 273 273 273 273 274 275 276 277 278 279 280 282 283 285 286 287 287 287 286 284 281 277 275 273 272 271 270 269 267 265 264 263 261 260 258 256 254 253 252 253 253 254 255 255 254 253 254 254 253
259 259 258 259 259 259 260 261 262 263 265 266 268 267 266 266 265 265 266 268 269 271 274 278 279 278 275 270 265 263 266 269 272 274 274 273 273 272 272 273 274 275 276 277 278 278 279 280 282 283 285 286 287 286 285 282 279 275 273 271 270 269 268 267 266 265 264 262 261 260 258 257 255 253 251 251 252 252 253 254 254 253 252 252 253
263 261 259 258 257 257 258 258 260 262 263 264 265 265 265 267 266 265 266 267 268 270 273 279 280 273 267 265 268 271 273 274 276 275 274 273 272 272 273 274 275 276 276 277 278 278 279 280 282 284 285 285 285 283 281 279 276 273 271 269 268 267 267 266 265 264 263 262 261 260 259 257 256 254 252 250 251 251 252 252 253 253 252 251 251
263 262 260 259 258 257 257 256 257 259 260 262 264 265 266 267 267 267 265 264 264 265 268 275 276 264 261 274 281 280 279 277 275 274 273 273 273 273 275 276 276 277 277 277 278 279 280 282 283 284 284 284 282 280 277 275 273 271 269 268 267 266 265 264 263 263 262 262 261 261 259 258 257 255 253 251 250 250 251 251 251 252 253 251 249
262 261 260 259 259 258 257 257 256 257 257 259 262 263 264 266 266 265 263 262 263 263 266 273 268 255 264 283 286 282 280 277 274 274 274 274 275 276 277 278 278 278 278 279 281 281 282 283 283 283 283 282 279 277 274 272 270 269 268 267 266 265 263 262 261 261 261 261 260 260 259 259 257 256 254 253 251 250 250 251 251 251 252 251 249
259 259 258 258 257 256 256 255 255 255 256 257 258 259 261 264 264 263 263 263 264 264 267 270 262 256 268 283 285 282 279 276 275 277 277 278 279 280 280 280 280 281 281 282 283 283 284 284 283 282 281 279 276 274 272 271 269 268 267 266 266 265 263 262 260 259 259 259 258 258 258 258 257 256 255 254 252 250 249 250 251 251 250 250 248
253 253 253 253 253 253 253 253 251 249 250 252 254 256 260 262 263 264 264 264 264 264 264 264 263 264 273 281 282 279 278 278 280 281 281 282 282 282 282 282 283 283 284 284 285 284 284 284 283 281 279 277 276 274 272 271 270 268 267 266 265 264 263 262 260 259 258 258 257 257 257 257 256 256 255 254 253 251 249 248 249 250 249 248 247
247 247 249 250 252 252 251 249 246 245 246 248 251 254 257 259 261 263 265 264 264 263 262 263 265 269 275 278 278 278 279 281 283 283 283 283 283 283 284 284 284 285 285 286 286 285 285 283 282 280 279 278 277 275 274 272 270 269 267 266 264 263 262 261 261 259 258 257 256 256 256 256 255 255 254 253 252 251 248 246 246 248 248 247 246
248 247 247 249 251 251 249 246 246 245 245 246 247 250 253 256 259 262 264 264 263 264 265 266 267 269 273 276 278 280 282 283 283 283 284 284 284 284 284 285 286 286 287 287 287 286 285 283 282 281 280 279 277 276 274 272 270 268 266 265 263 263 262 261 261 260 258 257 256 255 254 254 253 252 252 251 250 250 248 244 243 245 246 246 245
247 245 245 246 247 246 246 247 247 244 241 243 246 248 251 254 258 260 262 264 265 265 266 266 266 269 273 276 279 281 282 282 282 283 283 284 284 285 286 287 287 287 287 287 287 286 285 285 283 282 280 279 278 276 274 272 269 267 264 263 262 263 263 263 263 262 260 258 256 255 253 251 250 249 248 247 246 247 246 243 241 242 244 244 243
244 242 242 243 242 242 240 240 242 241 239 242 245 247 250 254 257 259 261 262 263 263 263 264 267 270 274 276 278 279 279 281 282 282 283 285 286 287 288 288 287 287 287 287 287 287 286 285 284 282 281 280 278 276 272 270 268 266 265 264 264 264 264 264 263 262 260 258 256 255 253 250 248 246 245 245 244 245 245 243 240 239 240 242 241
238 237 236 235 238 239 235 232 233 236 237 241 245 248 251 253 254 255 257 257 258 259 261 265 268 271 273 275 276 278 280 281 282 284 285 287 287 288 288 288 288 288 288 288 288 287 286 286 285 285 285 283 280 276 272 269 268 267 267 266 266 266 264 263 262 261 260 259 257 255 253 250 248 246 244 243 243 243 244 243 239 237 237 239 239
229 229 228 226 228 230 230 229 232 235 238 241 245 247 247 246 246 248 250 252 255 258 262 266 269 272 274 276 278 280 282 283 284 286 287 288 288 288 289 289 289 289 288 287 287 286 286 287 288 287 286 283 280 276 274 271 269 268 268 267 267 267 266 264 263 261 260 259 257 255 252 249 247 245 244 243 242 242 242 242 239 236 235 236 236
213 215 215 213 215 220 225 227 229 231 231 233 236 238 238 238 240 244 248 253 258 263 267 271 274 276 278 279 281 282 284 286 287 288 289 289 289 290 290 290 288 286 286 286 286 286 286 287 286 284 282 279 278 277 276 274 273 272 271 269 266 265 264 264 263 262 261 259 257 255 252 249 247 245 243 242 242 241 241 241 238 235 234 234 234
188 188 190 195 203 213 217 217 217 218 219 222 225 229 232 236 242 250 257 264 269 273 276 277 278 280 282 283 285 287 288 289 290 290 290 291 292 292 291 289 287 286 287 286 286 286 285 283 281 280 277 275 276 275 275 276 277 277 275 271 266 263 262 262 262 261 260 257 256 254 252 250 248 245 243 241 240 240 240 240 237 235 232 232 231
183 179 181 191 203 209 207 203 203 210 215 219 223 230 238 247 256 265 271 275 277 278 280 281 282 284 286 288 289 290 291 291 291 292 294 295 295 294 291 288 287 288 288 286 285 283 281 281 281 281 279 277 274 273 273 275 278 279 277 273 267 263 261 261 261 261 261 259 257 255 253 250 248 245 242 239 238 237 237 237 236 234 231 229 229
189 190 193 198 201 200 198 199 203 210 215 220 229 242 255 266 272 275 276 278 279 281 282 285 287 288 289 290 290 289 290 292 294 297 299 299 296 293 290 288 289 289 285 283 281 279 280 284 287 286 284 280 277 275 275 276 278 280 279 275 269 265 263 263 264 265 264 262 259 256 253 250 246 244 240 237 235 235 234 234 234 232 229 227 226
189 193 192 188 185 188 197 203 207 214 223 232 245 261 274 278 278 278 279 281 283 285 287 289 289 290 289 289 288 289 292 296 300 303 303 300 296 293 291 291 291 287 282 279 278 278 282 287 289 289 287 284 281 279 278 278 281 282 281 277 273 269 268 267 266 264 262 260 257 254 251 248 245 242 239 235 233 232 231 230 229 229 226 224 223
181 181 178 177 181 189 198 206 217 230 240 251 265 275 279 279 279 280 283 286 289 291 292 292 290 290 289 289 291 294 299 303 307 308 306 302 299 298 297 295 292 286 280 278 278 280 283 286 288 289 289 287 284 282 280 281 283 283 281 279 275 271 268 265 264 262 261 259 256 253 250 246 243 239 234 230 228 227 225 224 224 224 222 221 220
172 171 174 180 185 190 202 218 233 244 255 268 275 276 275 277 280 286 292 296 299 300 299 297 295 294 294 296 299 302 307 310 313 313 309 305 304 305 302 297 293 290 286 283 282 283 284 285 286 288 288 287 286 283 280 279 279 280 281 278 271 266 268 268 266 264 262 259 256 251 247 244 240 234 229 224 221 219 218 218 218 218 218 217 217
171 173 178 182 183 195 216 228 238 251 261 267 269 271 275 282 291 299 304 307 308 308 306 304 303 302 304 306 308 311 314 317 317 315 312 309 310 309 302 294 293 295 295 292 291 289 287 286 285 283 283 284 283 279 274 270 272 282 286 275 262 269 280 280 273 266 259 256 253 247 242 239 236 230 224 218 212 210 210 211 212 213 213 212 212
176 178 182 185 193 206 218 227 238 248 253 257 265 275 286 297 304 309 312 314 314 313 311 311 312 313 314 314 315 317 320 321 320 318 317 317 317 314 305 294 292 296 299 299 296 293 290 287 283 279 278 277 272 266 263 264 273 289 286 266 256 275 291 288 278 266 256 251 249 243 236 231 227 220 213 206 202 201 203 205 206 206 205 206 207
189 190 189 192 199 207 215 224 232 238 244 254 270 286 300 308 312 314 316 317 318 319 320 321 321 321 321 320 320 322 324 324 324 322 321 319 318 314 306 298 294 296 301 302 298 293 288 284 281 276 268 261 256 254 258 268 286 297 283 258 252 277 296 292 279 263 249 241 239 237 230 220 211 204 198 195 195 196 198 199 198 198 199 200 200
201 200 196 196 201 207 215 221 225 230 239 259 286 305 315 319 320 320 321 323 326 329 330 330 328 326 325 324 324 325 326 327 327 325 322 320 319 315 308 300 295 296 301 303 301 295 286 279 279 273 253 242 248 255 257 272 296 305 288 259 254 278 295 293 276 254 237 224 220 223 217 205 198 194 191 190 189 189 190 191 191 191 193 193 192
206 203 199 198 201 206 213 217 219 226 246 275 308 324 330 332 331 328 327 329 334 336 336 335 332 329 328 328 328 329 329 330 330 328 326 326 326 322 312 300 293 296 301 305 307 302 288 275 272 270 257 248 256 266 269 278 294 304 297 267 260 280 296 293 268 238 221 207 199 200 198 191 188 189 189 186 183 182 183 182 182 183 186 189 194
209 207 203 201 202 207 214 218 221 233 258 290 317 332 340 342 338 333 331 334 339 340 339 337 335 333 332 332 332 332 333 334 334 333 333 333 334 332 321 303 296 299 302 308 314 310 292 273 264 261 261 261 263 271 281 284 288 302 307 275 256 278 301 298 266 220 203 192 180 178 182 183 183 185 185 180 175 173 171 170 173 182 188 192 197
211 209 206 202 204 211 216 221 230 247 270 295 317 334 343 344 340 336 334 335 339 341 341 339 338 338 337 336 335 336 338 339 339 338 338 338 340 341 333 312 301 300 299 308 318 317 301 278 258 249 253 258 257 261 277 275 272 287 299 275 241 277 315 314 267 203 191 180 169 165 169 171 173 175 174 170 168 167 166 168 178 188 194 195 199
213 211 209 207 210 215 219 225 241 263 283 301 317 331 340 342 340 337 335 335 339 342 341 340 340 340 339 339 339 340 341 344 344 343 341 340 342 346 343 322 304 299 298 307 319 323 316 297 262 242 241 244 239 237 244 246 252 271 292 281 232 255 301 314 260 189 182 172 163 161 160 159 160 162 164 166 169 171 175 180 187 193 198 202 207
216 214 213 215 217 218 221 231 253 273 290 304 316 328 335 337 336 336 335 335 336 338 338 338 339 340 341 342 343 343 344 347 349 347 344 342 345 349 350 337 311 299 299 305 317 328 327 315 285 252 238 231 227 221 213 223 245 264 287 300 260 240 265 303 207 178 175 166 161 160 158 156 157 159 160 165 174 181 187 191 195 199 203 207 211
218 217 217 221 222 222 227 242 258 275 292 305 318 327 331 332 332 332 333 333 332 333 334 335 336 338 341 343 346 347 347 349 352 352 348 346 346 351 354 352 335 305 290 289 302 322 329 319 303 284 246 224 221 220 216 220 234 233 237 271 281 244 218 189 150 167 168 163 161 160 158 157 158 159 163 175 186 193 196 198 200 202 205 207 209
222 220 222 226 226 228 238 253 263 278 295 307 318 324 325 327 328 330 331 331 329 330 332 332 334 337 340 343 348 350 349 351 355 356 353 350 349 352 355 357 353 336 303 284 282 301 319 315 303 293 223 199 211 223 225 224 221 208 211 245 271 238 179 157 147 151 156 161 163 160 156 155 159 167 181 193 195 196 198 200 201 203 206 209 210
221 220 223 226 226 230 245 258 269 283 295 302 310 316 320 324 326 328 330 331 329 329 331 332 334 337 340 343 348 352 352 353 356 358 357 355 354 354 355 356 357 354 343 322 294 282 296 305 280 166 134 148 197 222 221 212 208 209 216 234 250 226 183 169 154 141 144 157 166 165 162 165 172 182 194 201 200 198 200 203 206 208 210 212 215
220 219 221 224 226 234 247 258 268 280 288 296 303 310 316 321 325 326 329 331 331 331 333 334 336 339 341 343 347 352 354 355 356 358 0 0 359 357 357 357 357 358 359 355 343 315 291 276 198 169 156 153 200 217 208 198 200 208 219 229 234 217 190 182 172 157 152 162 173 176 177 180 184 188 194 201 204 203 204 206 208 209 212 216 221
223 222 223 225 229 238 250 259 268 278 286 294 301 307 312 317 321 324 326 329 332 334 335 337 340 342 344 345 348 351 356 358 358 359 1 3 3 1 0 0 360 0 1 360 359 358 341 228 200 188 185 193 205 202 196 193 198 206 215 224 227 212 192 189 187 180 173 174 179 185 188 188 189 190 194 200 203 204 205 208 211 214 217 222 226
226 225 226 227 231 239 250 258 267 276 285 291 296 301 306 311 315 319 322 326 330 334 336 340 343 345 347 348 349 351 355 358 359 359 1 5 6 5 3 2 4 5 5 4 3 5 7 239 211 204 201 206 210 190 165 157 172 195 209 217 220 218 204 195 193 192 188 184 184 187 190 193 196 200 202 205 208 210 211 213 217 219 222 224 227
226 227 228 228 231 238 245 253 262 270 278 284 290 295 299 304 308 313 317 321 326 331 334 339 345 349 351 351 350 350 353 357 0 1 2 5 8 8 6 5 6 8 10 10 8 6 7 360 217 210 208 212 219 199 167 158 160 173 191 202 208 213 216 207 197 196 199 198 196 196 198 201 206 211 213 215 218 219 219 220 221 221 223 226 230
Height
5708 5708 5708 5708 5708 5707 5707 5708 5708 5708 5709 5709 5709 5710 5710 5711 5712 5712 5713 5714 5714 5715 5716 5716 5717 5717 5717 5718 5718 5718 5719 5719 5719 5719 5719 5720 5720 5720 5720 5721 5721 5721 5722 5722 5723 5723 5724 5724 5724 5724 5724 5724 5724 5724 5724 5725 5725 5726 5726 5727 5727 5727 5728 5729 5730 5733 5736 5736 5735 5736 5737 5736 5737 5738 5739 5741 5743 5743 5744 5744 5746 5748 5750 5752 5753
5706 5705 5705 5705 5705 5705 5705 5705 5705 5705 5705 5706 5706 5706 5707 5707 5707 5708 5709 5709 5710 5711 5712 5712 5713 5713 5713 5713 5714 5714 5714 5714 5715 5715 5715 5715 5715 5715 5716 5716 5716 5716 5716 5716 5717 5717 5718 5718 5718 5718 5719 5719 5718 5718 5718 5719 5719 5720 5720 5720 5721 5721 5721 5722 5723 5725 5729 5730 5729 5730 5731 5730 5731 5733 5733 5735 5736 5737 5737 5739 5740 5742 5744 5746 5747
5703 5702 5702 5702 5702 5702 5702 5702 5702 5702 5702 5702 5702 5703 5703 5704 5704 5704 5705 5705 5706 5707 5708 5708 5709 5709 5709 5709 5709 5709 5709 5710 5710 5710 5710 5710 5710 5710 5711 5711 5711 5711 5711 5711 5711 5711 5712 5712 5712 5712 5713 5713 5713 5713 5713 5713 5713 5713 5713 5714 5714 5715 5714 5715 5716 5717 5721 5724 5724 5723 5724 5724 5725 5726 5726 5727 5729 5730 5731 5732 5734 5735 5737 5739 5740
5700 5699 5699 5698 5698 5698 5699 5699 5699 5699 5698 5698 5698 5699 5699 5700 5700 5701 5701 5702 5702 5703 5703 5704 5704 5704 5705 5705 5705 5705 5705 5705 5705 5705 5705 5705 5705 5705 5705 5705 5705 5705 5705 5705 5705 5705 5706 5706 5705 5706 5706 5707 5707 5706 5706 5707 5706 5706 5707 5707 5707 5708 5708 5708 5709 5709 5712 5716 5718 5717 5717 5718 5718 5719 5719 5719 5721 5722 5724 5725 5726 5728 5730 5731 5733
5695 5696 5696 5695 5694 5694 5695 5695 5695 5695 5695 5694 5694 5694 5694 5695 5696 5696 5696 5697 5697 5698 5698 5699 5699 5699 5699 5700 5699 5699 5699 5699 5699 5699 5699 5698 5698 5698 5698 5698 5698 5699 5699 5699 5699 5699 5699 5699 5699 5699 5699 5700 5700 5700 5700 5700 5700 5700 5700 5700 5700 5700 5701 5701 5701 5702 5703 5707 5710 5711 5710 5711 5711 5711 5711 5712 5713 5715 5716 5717 5719 5721 5723 5725 5726
5690 5691 5691 5691 5691 5691 5690 5691 5691 5691 5691 5690 5689 5689 5690 5690 5691 5691 5692 5692 5692 5693 5693 5694 5694 5694 5694 5694 5694 5694 5694 5694 5693 5693 5693 5692 5692 5692 5692 5692 5692 5692 5692 5692 5692 5692 5693 5693 5693 5692 5692 5692 5693 5693 5693 5693 5693 5694 5693 5693 5693 5693 5694 5694 5694 5695 5695 5698 5701 5703 5704 5704 5704 5704 5704 5705 5706 5707 5708 5710 5712 5714 5716 5718 5719
5684 5685 5685 5686 5687 5687 5687 5686 5686 5686 5686 5685 5685 5684 5684 5685 5685 5686 5686 5687 5687 5687 5688 5688 5688 5689 5689 5689 5689 5688 5688 5688 5688 5687 5687 5687 5687 5686 5686 5686 5686 5686 5686 5686 5686 5686 5686 5686 5685 5685 5685 5685 5685 5685 5685 5685 5685 5686 5686 5686 5686 5686 5686 5686 5686 5687 5688 5689 5691 5694 5696 5696 5696 5697 5697 5697 5699 5700 5701 5703 5705 5707 5708 5709 5711
5678 5679 5680 5680 5681 5682 5682 5681 5681 5680 5680 5680 5679 5678 5678 5678 5679 5680 5681 5681 5682 5682 5682 5682 5683 5683 5683 5683 5683 5683 5683 5682 5682 5682 5682 5681 5681 5681 5680 5680 5680 5680 5680 5680 5680 5680 5680 5679 5679 5678 5678 5678 5677 5677 5677 5677 5677 5677 5677 5678 5678 5678 5678 5679 5679 5679 5680 5681 5683 5685 5687 5689 5689 5689 5690 5690 5691 5692 5693 5695 5698 5699 5700 5701 5703
5673 5673 5674 5675 5675 5676 5676 5676 5675 5676 5675 5675 5673 5672 5671 5672 5672 5673 5674 5676 5676 5676 5676 5677 5677 5677 5677 5677 5677 5677 5677 5677 5677 5677 5676 5676 5675 5675 5675 5675 5675 5675 5675 5674 5674 5673 5673 5673 5672 5672 5671 5670 5670 5670 5669 5669 5668 5669 5668 5668 5669 5670 5670 5671 5671 5671 5672 5673 5674 5676 5678 5680 5681 5681 5682 5682 5683 5685 5686 5688 5690 5691 5692 5694 5696
5667 5667 5668 5669 5669 5670 5670 5670 5671 5671 5671 5670 5668 5664 5662 5664 5666 5667 5668 5669 5670 5671 5671 5671 5671 5671 5671 5671 5671 5671 5671 5671 5671 5671 5670 5670 5669 5669 5669 5669 5669 5668 5668 5668 5668 5667 5666 5666 5665 5664 5664 5663 5662 5662 5662 5661 5661 5660 5660 5659 5659 5660 5661 5662 5663 5663 5663 5665 5666 5667 5669 5671 5672 5672 5674 5674 5675 5677 5678 5680 5682 5684 5685 5686 5689
5659 5660 5661 5662 5663 5663 5664 5664 5665 5665 5665 5666 5665 5660 5656 5657 5659 5660 5661 5662 5664 5665 5665 5665 5665 5665 5665 5665 5665 5665 5665 5665 5665 5664 5664 5664 5664 5663 5663 5663 5662 5662 5662 5661 5661 5660 5659 5659 5658 5657 5656 5656 5655 5654 5653 5653 5653 5652 5652 5651 5651 5650 5651 5652 5653 5654 5654 5656 5658 5659 5660 5662 5663 5663 5665 5666 5667 5668 5670 5671 5674 5676 5678 5680 5682
5650 5651 5653 5654 5655 5656 5656 5657 5657 5658 5658 5659 5659 5656 5652 5651 5652 5652 5654 5656 5657 5658 5659 5659 5659 5658 5658 5658 5659 5659 5659 5659 5658 5658 5658 5658 5657 5657 5657 5656 5656 5656 5655 5654 5654 5653 5652 5651 5650 5650 5649 5648 5647 5646 5645 5644 5644 5643 5643 5643 5642 5642 5641 5642 5643 5644 5645 5646 5648 5650 5652 5653 5654 5654 5656 5657 5659 5660 5661 5663 5665 5668 5670 5673 5675
5642 5644 5645 5646 5647 5647 5648 5649 5650 5650 5650 5650 5651 5650 5648 5646 5646 5646 5648 5650 5651 5651 5652 5652 5652 5651 5651 5651 5652 5653 5652 5652 5651 5651 5651 5651 5651 5650 5650 5650 5650 5649 5648 5647 5646 5645 5644 5644 5643 5642 5641 5639 5638 5637 5636 5636 5635 5634 5633 5633 5633 5633 5632 5632 5633 5634 5635 5636 5639 5641 5643 5643 5645 5647 5647 5647 5649 5651 5653 5655 5657 5659 5662 5665 5668
5635 5636 5637 5638 5639 5640 5640 5641 5642 5642 5642 5642 5643 5642 5641 5641 5640 5641 5642 5644 5644 5645 5645 5645 5645 5645 5645 5645 5646 5646 5645 5645 5644 5644 5644 5644 5644 5644 5643 5643 5643 5642 5641 5640 5639 5638 5636 5635 5635 5634 5632 5631 5630 5628 5627 5626 5625 5625 5624 5623 5623 5623 5623 5623 5623 5623 5624 5625 5628 5632 5633 5633 5635 5638 5638 5638 5640 5642 5644 5646 5648 5651 5654 5657 5660
5627 5629 5630 5631 5631 5632 5632 5633 5633 5633 5633 5633 5635 5635 5635 5635 5635 5636 5637 5638 5638 5638 5638 5639 5639 5639 5639 5639 5639 5639 5638 5638 5638 5638 5638 5638 5637 5637 5636 5636 5636 5635 5634 5632 5631 5630 5628 5627 5626 5625 5623 5622 5620 5618 5617 5615 5615 5615 5614 5613 5613 5612 5612 5613 5613 5613 5614 5614 5617 5620 5623 5623 5625 5628 5629 5630 5631 5633 5634 5637 5640 5643 5645 5648 5652
5620 5621 5622 5623 5623 5623 5623 5624 5624 5624 5624 5624 5626 5627 5628 5628 5630 5631 5631 5631 5631 5632 5632 5632 5632 5632 5633 5633 5632 5632 5632 5632 5632 5632 5631 5631 5630 5630 5629 5629 5628 5627 5626 5625 5623 5621 5619 5618 5617 5615 5614 5612 5609 5607 5606 5604 5603 5603 5603 5603 5602 5602 5602 5602 5602 5602 5603 5604 5606 5608 5611 5614 5615 5617 5620 5621 5623 5624 5624 5626 5631 5634 5635 5639 5644
5612 5613 5613 5614 5614 5614 5614 5615 5615 5615 5616 5617 5618 5618 5619 5621 5623 5624 5624 5624 5625 5625 5626 5626 5626 5626 5627 5627 5627 5626 5626 5625 5625 5625 5624 5623 5623 5623 5622 5622 5621 5620 5618 5616 5614 5613 5611 5608 5607 5605 5604 5602 5599 5596 5594 5592 5592 5592 5591 5591 5591 5592 5593 5592 5591 5592 5592 5593 5596 5597 5600 5603 5605 5608 5610 5612 5614 5615 5615 5618 5622 5624 5627 5631 5636
5601 5602 5603 5604 5604 5605 5605 5605 5606 5607 5609 5610 5610 5610 5611 5613 5614 5616 5617 5618 5619 5619 5620 5620 5619 5619 5620 5621 5621 5621 5620 5619 5618 5618 5617 5616 5615 5615 5614 5614 5613 5611 5609 5608 5605 5604 5602 5599 5597 5594 5593 5591 5588 5585 5582 5580 5580 5580 5580 5580 5581 5582 5583 5581 5580 5581 5581 5583 5585 5587 5589 5592 5595 5598 5601 5603 5605 5605 5606 5611 5614 5614 5618 5624 5628
5589 5590 5591 5593 5594 5595 5595 5597 5599 5600 5602 5603 5603 5602 5604 5605 5607 5609 5610 5610 5611 5612 5613 5613 5613 5613 5614 5615 5615 5614 5613 5612 5611 5610 5609 5608 5607 5606 5605 5605 5604 5602 5600 5599 5597 5594 5592 5590 5587 5584 5581 5579 5577 5574 5572 5570 5569 5569 5568 5568 5570 5573 5573 5571 5571 5571 5571 5572 5574 5576 5579 5582 5584 5587 5591 5594 5596 5597 5598 5602 5606 5606 5610 5616 5620
5578 5579 5581 5582 5583 5585 5586 5588 5591 5593 5595 5597 5597 5596 5597 5598 5600 5602 5603 5603 5604 5605 5606 5607 5607 5607 5608 5608 5608 5607 5607 5606 5605 5603 5602 5601 5599 5598 5597 5595 5594 5593 5591 5589 5587 5585 5582 5579 5576 5572 5570 5567 5565 5563 5562 5560 5559 5559 5558 5558 5560 5562 5562 5561 5561 5561 5561 5562 5564 5565 5568 5571 5574 5577 5581 5584 5587 5589 5591 5594 5597 5599 5602 5606 5611
5568 5570 5571 5573 5574 5576 5577 5579 5583 5586 5588 5590 5591 5590 5591 5592 5594 5595 5597 5597 5598 5599 5600 5601 5601 5601 5601 5601 5601 5600 5599 5599 5598 5596 5595 5593 5591 5589 5588 5586 5584 5582 5581 5579 5576 5574 5571 5568 5565 5561 5558 5556 5554 5553 5552 5550 5549 5549 5549 5549 5550 5551 5550 5550 5551 5550 5551 5552 5554 5555 5558 5561 5564 5567 5571 5574 5577 5580 5583 5586 5588 5591 5594 5598 5603
5560 5562 5563 5565 5567 5568 5570 5572 5576 5579 5580 5582 5583 5585 5585 5586 5588 5589 5590 5591 5592 5593 5594 5595 5595 5595 5595 5595 5594 5594 5592 5591 5590 5589 5587 5585 5583 5580 5578 5576 5573 5571 5570 5568 5565 5562 5559 5556 5553 5550 5547 5546 5544 5543 5542 5541 5539 5538 5539 5539 5539 5538 5538 5538 5539 5540 5541 5543 5544 5546 5549 5551 5554 5557 5561 5565 5568 5571 5574 5578 5580 5582 5585 5589 5594
5554 5556 5558 5559 5561 5562 5564 5566 5568 5571 5573 5576 5578 5579 5580 5581 5583 5584 5585 5585 5586 5586 5587 5588 5589 5589 5589 5589 5588 5587 5585 5584 5582 5581 5579 5577 5574 5571 5569 5566 5563 5560 5558 5556 5553 5550 5547 5544 5542 5540 5537 5536 5534 5532 5531 5530 5528 5528 5528 5527 5526 5526 5526 5526 5528 5530 5532 5534 5535 5537 5540 5542 5545 5548 5551 5555 5558 5560 5564 5568 5571 5573 5577 5581 5585
5548 5550 5552 5553 5555 5557 5558 5559 5562 5564 5567 5570 5573 5574 5575 5577 5578 5579 5580 5580 5580 5580 5581 5581 5582 5583 5583 5582 5581 5579 5578 5576 5575 5573 5571 5568 5566 5563 5559 5556 5553 5549 5546 5544 5541 5538 5536 5533 5531 5529 5527 5525 5523 5522 5520 5519 5518 5518 5517 5516 5515 5515 5515 5517 5518 5520 5522 5524 5526 5529 5532 5534 5536 5539 5541 5544 5547 5549 5553 5558 5562 5564 5568 5573 5578
5542 5544 5546 5547 5549 5551 5553 5555 5557 5559 5562 5565 5568 5570 5571 5572 5573 5574 5575 5575 5575 5575 5576 5576 5576 5577 5576 5575 5574 5573 5571 5569 5567 5565 5563 5560 5557 5554 5550 5547 5543 5539 5536 5533 5530 5527 5525 5522 5520 5518 5517 5515 5514 5512 5511 5510 5508 5508 5507 5507 5506 5506 5506 5507 5509 5510 5513 5516 5518 5520 5523 5525 5526 5528 5530 5533 5535 5537 5541 5547 5553 5557 5560 5564 5569
5536 5539 5541 5542 5545 5547 5550 5551 5553 5555 5558 5561 5563 5564 5566 5567 5568 5569 5569 5570 5570 5570 5570 5571 5571 5570 5570 5569 5568 5567 5564 5563 5561 5558 5555 5552 5549 5545 5541 5537 5533 5529 5526 5523 5520 5517 5514 5512 5510 5508 5507 5506 5505 5503 5501 5500 5499 5498 5498 5498 5497 5497 5497 5498 5499 5500 5503 5506 5508 5510 5513 5515 5516 5517 5519 5522 5525 5528 5532 5538 5544 5548 5552 5555 5560
5531 5534 5536 5539 5541 5543 5545 5547 5549 5551 5554 5556 5558 5560 5562 5563 5563 5564 5565 5565 5565 5565 5565 5565 5565 5564 5564 5563 5562 5560 5558 5556 5553 5551 5547 5544 5540 5537 5533 5529 5525 5521 5517 5513 5510 5507 5505 5503 5501 5499 5498 5497 5495 5493 5492 5491 5490 5490 5490 5489 5489 5489 5489 5490 5490 5492 5494 5496 5498 5501 5503 5504 5505 5508 5511 5514 5517 5521 5524 5529 5535 5540 5543 5547 5552
5528 5531 5533 5535 5537 5539 5541 5543 5545 5547 5549 5552 5555 5556 5558 5558 5559 5560 5561 5561 5561 5561 5560 5560 5559 5559 5558 5557 5556 5554 5551 5548 5546 5542 5539 5536 5533 5529 5525 5521 5516 5512 5508 5505 5502 5500 5497 5495 5493 5491 5489 5488 5487 5486 5485 5484 5484 5483 5483 5482 5482 5482 5482 5483 5483 5485 5487 5489 5490 5492 5493 5495 5497 5500 5503 5506 5510 5513 5516 5520 5527 5532 5535 5539 5544
5524 5526 5528 5531 5534 5537 5539 5541 5542 5544 5546 5549 5551 5552 5553 5554 5555 5556 5557 5556 5556 5556 5555 5555 5554 5554 5552 5551 5549 5547 5544 5541 5538 5535 5531 5528 5525 5521 5517 5512 5508 5504 5501 5498 5495 5493 5490 5488 5486 5484 5483 5481 5481 5480 5479 5478 5477 5477 5476 5476 5475 5476 5476 5477 5478 5479 5480 5481 5483 5484 5486 5487 5489 5492 5495 5499 5502 5505 5509 5513 5519 5524 5527 5531 5537
5522 5523 5526 5529 5532 5535 5536 5538 5540 5542 5544 5546 5548 5549 5551 5552 5552 5552 5552 5552 5552 5552 5551 5550 5549 5548 5546 5544 5541 5539 5536 5533 5531 5528 5525 5521 5517 5513 5508 5504 5499 5496 5494 5491 5488 5486 5484 5482 5480 5478 5477 5476 5475 5475 5473 5473 5472 5471 5470 5470 5469 5470 5470 5471 5472 5473 5473 5474 5476 5477 5478 5480 5482 5485 5488 5492 5495 5498 5501 5506 5511 5516 5520 5525 5531
5522 5523 5526 5528 5530 5532 5534 5536 5538 5540 5542 5544 5546 5547 5548 5548 5548 5548 5548 5548 5548 5547 5546 5545 5543 5541 5539 5536 5534 5531 5529 5527 5525 5522 5518 5514 5509 5505 5500 5495 5492 5489 5487 5484 5481 5479 5478 5476 5475 5472 5471 5470 5470 5469 5468 5467 5467 5466 5465 5464 5464 5464 5464 5465 5465 5466 5466 5467 5469 5470 5471 5473 5475 5478 5481 5484 5487 5490 5494 5499 5504 5509 5515 5520 5525
5521 5522 5524 5526 5528 5530 5532 5534 5536 5538 5540 5542 5543 5544 5544 5544 5544 5544 5544 5544 5543 5542 5541 5539 5536 5534 5532 5530 5528 5526 5524 5522 5519 5515 5511 5507 5502 5497 5492 5488 5485 5483 5480 5477 5476 5474 5473 5471 5469 5467 5465 5464 5464 5463 5463 5462 5461 5461 5460 5459 5458 5458 5458 5459 5459 5459 5460 5460 5462 5463 5464 5466 5468 5470 5473 5477 5480 5483 5488 5493 5498 5504 5509 5514 5519
5519 5521 5523 5525 5527 5529 5531 5533 5535 5537 5538 5539 5540 5541 5541 5541 5541 5541 5541 5540 5538 5537 5535 5533 5531 5529 5527 5525 5523 5522 5519 5516 5512 5508 5504 5499 5495 5491 5486 5481 5478 5476 5474 5472 5470 5469 5468 5466 5464 5461 5459 5458 5458 5458 5457 5457 5456 5455 5455 5454 5453 5453 5453 5454 5454 5454 5454 5455 5456 5457 5458 5459 5461 5464 5467 5470 5474 5477 5482 5487 5493 5498 5504 5509 5514
5519 5521 5523 5525 5526 5528 5530 5532 5534 5535 5536 5537 5538 5538 5539 5539 5538 5537 5536 5535 5533 5531 5530 5528 5527 5525 5523 5521 5519 5516 5513 5510 5506 5501 5496 5492 5488 5484 5480 5476 5473 5471 5469 5467 5466 5464 5463 5461 5459 5457 5455 5454 5454 5453 5453 5452 5452 5451 5450 5449 5449 5449 5449 5450 5450 5450 5450 5450 5451 5452 5453 5454 5456 5459 5461 5464 5468 5472 5477 5483 5488 5493 5499 5505 5510
5519 5521 5523 5524 5525 5527 5529 5531 5532 5533 5534 5535 5536 5536 5536 5536 5535 5534 5532 5530 5528 5527 5525 5524 5523 5521 5519 5516 5513 5510 5507 5503 5499 5494 5490 5486 5483 5479 5475 5471 5468 5466 5464 5463 5461 5460 5458 5457 5455 5453 5452 5451 5451 5450 5449 5449 5448 5448 5447 5446 5446 5447 5447 5447 5446 5446 5446 5446 5447 5447 5449 5450 5452 5454 5456 5460 5464 5468 5474 5479 5484 5490 5496 5501 5506
5519 5521 5522 5523 5525 5527 5528 5529 5530 5531 5532 5533 5534 5534 5534 5533 5531 5530 5528 5526 5525 5524 5522 5521 5519 5517 5515 5511 5508 5505 5501 5497 5493 5488 5484 5480 5477 5474 5471 5468 5465 5463 5461 5459 5458 5456 5455 5453 5451 5450 5449 5448 5448 5447 5446 5446 5446 5445 5444 5444 5444 5445 5444 5444 5443 5442 5442 5442 5443 5444 5445 5447 5449 5451 5453 5457 5461 5466 5471 5476 5482 5487 5493 5498 5503
5518 5520 5521 5523 5524 5526 5527 5528 5529 5530 5531 5532 5532 5531 5530 5529 5527 5526 5525 5523 5522 5521 5520 5518 5515 5513 5510 5507 5504 5501 5497 5492 5487 5482 5478 5475 5472 5469 5466 5464 5462 5460 5458 5456 5454 5453 5451 5449 5448 5447 5446 5446 5445 5444 5444 5444 5444 5443 5443 5443 5443 5443 5443 5441 5440 5439 5439 5440 5441 5442 5443 5444 5447 5449 5452 5456 5460 5464 5469 5474 5480 5485 5490 5495 5501
5517 5519 5521 5522 5524 5525 5526 5527 5528 5529 5530 5530 5529 5528 5527 5525 5524 5523 5522 5521 5520 5518 5516 5514 5512 5509 5506 5504 5501 5498 5494 5489 5484 5479 5475 5472 5468 5465 5462 5460 5459 5457 5455 5453 5451 5449 5447 5446 5446 5445 5444 5444 5443 5443 5443 5442 5442 5442 5441 5441 5441 5442 5441 5440 5438 5437 5437 5438 5439 5440 5442 5443 5446 5449 5452 5456 5460 5464 5469 5474 5478 5483 5488 5494 5499
5517 5518 5520 5521 5523 5524 5525 5526 5526 5527 5527 5527 5526 5524 5523 5523 5522 5521 5520 5518 5517 5515 5513 5511 5508 5506 5504 5501 5498 5494 5490 5486 5481 5477 5473 5470 5466 5462 5459 5456 5455 5454 5453 5451 5449 5447 5445 5444 5444 5443 5442 5442 5442 5442 5442 5441 5441 5440 5440 5440 5440 5441 5440 5439 5437 5437 5437 5437 5438 5440 5441 5443 5446 5449 5453 5457 5461 5465 5469 5473 5477 5482 5487 5493 5498
5516 5518 5519 5520 5521 5522 5523 5523 5524 5524 5524 5523 5522 5521 5521 5520 5519 5518 5517 5516 5514 5512 5510 5508 5506 5504 5501 5498 5495 5492 5487 5483 5478 5474 5471 5467 5464 5459 5456 5454 5453 5451 5450 5449 5447 5445 5444 5443 5442 5442 5441 5441 5441 5441 5441 5440 5440 5440 5439 5439 5440 5440 5439 5438 5437 5437 5437 5437 5438 5440 5442 5444 5447 5451 5454 5458 5461 5465 5469 5473 5478 5483 5488 5493 5497
5515 5517 5518 5519 5519 5520 5520 5521 5521 5521 5521 5520 5520 5519 5518 5517 5516 5516 5514 5513 5512 5510 5509 5507 5505 5502 5499 5496 5492 5489 5484 5480 5475 5471 5468 5465 5461 5457 5454 5452 5451 5450 5448 5447 5446 5444 5442 5441 5441 5441 5440 5440 5440 5440 5440 5440 5439 5439 5439 5439 5439 5439 5438 5437 5437 5437 5438 5438 5439 5440 5443 5446 5449 5452 5455 5459 5463 5466 5470 5475 5480 5484 5488 5492 5496
5514 5515 5516 5516 5517 5518 5518 5518 5519 5519 5518 5518 5517 5516 5515 5514 5514 5513 5512 5511 5510 5508 5507 5505 5503 5500 5497 5494 5490 5486 5482 5478 5473 5469 5465 5462 5459 5456 5453 5451 5449 5448 5447 5446 5444 5442 5440 5440 5439 5439 5440 5439 5439 5440 5440 5440 5439 5439 5438 5439 5439 5439 5439 5438 5438 5438 5439 5439 5440 5442 5445 5447 5451 5454 5457 5461 5465 5468 5472 5476 5480 5484 5488 5492 5496
5513 5513 5514 5515 5515 5515 5516 5516 5517 5516 5516 5516 5515 5514 5513 5512 5512 5511 5510 5509 5508 5507 5505 5503 5501 5499 5496 5492 5489 5485 5481 5476 5472 5467 5464 5461 5458 5455 5452 5449 5448 5446 5445 5444 5443 5441 5439 5438 5438 5438 5438 5438 5439 5439 5439 5440 5439 5439 5439 5439 5439 5439 5440 5439 5438 5439 5440 5440 5442 5444 5447 5450 5453 5456 5459 5463 5467 5470 5473 5477 5481 5485 5488 5492 5496
5511 5512 5512 5513 5514 5514 5514 5515 5515 5514 5514 5514 5513 5512 5511 5511 5510 5510 5509 5508 5506 5505 5503 5501 5499 5497 5494 5491 5487 5484 5480 5475 5471 5467 5463 5460 5457 5454 5450 5448 5446 5445 5444 5443 5442 5440 5439 5437 5436 5436 5436 5437 5438 5438 5439 5439 5439 5439 5439 5439 5440 5440 5441 5440 5439 5439 5441 5442 5443 5446 5449 5452 5455 5458 5462 5466 5470 5473 5475 5478 5482 5485 5489 5492 5495
5510 5511 5512 5512 5513 5513 5513 5513 5513 5513 5512 5512 5511 5510 5510 5510 5509 5508 5507 5506 5505 5504 5502 5500 5498 5496 5493 5490 5487 5483 5479 5475 5471 5467 5463 5460 5456 5453 5450 5447 5445 5444 5443 5442 5441 5439 5438 5437 5435 5435 5435 5435 5436 5437 5438 5439 5439 5440 5440 5440 5441 5441 5442 5441 5440 5441 5442 5443 5445 5448 5450 5454 5458 5461 5465 5469 5472 5474 5476 5479 5482 5485 5488 5491 5494
5509 5510 5511 5511 5511 5511 5511 5512 5512 5511 5511 5510 5510 5509 5509 5509 5508 5507 5506 5505 5504 5502 5501 5499 5497 5494 5492 5489 5486 5483 5479 5475 5471 5467 5463 5459 5456 5452 5449 5446 5444 5443 5441 5440 5439 5438 5437 5436 5435 5434 5434 5434 5436 5437 5437 5438 5439 5440 5440 5441 5442 5442 5443 5443 5443 5443 5444 5446 5448 5450 5452 5456 5460 5463 5466 5469 5471 5473 5476 5479 5482 5485 5488 5490 5492
5508 5508 5508 5509 5509 5509 5510 5510 5510 5509 5509 5509 5508 5508 5508 5507 5507 5506 5505 5504 5503 5501 5500 5498 5496 5493 5491 5488 5485 5482 5479 5475 5471 5468 5464 5460 5456 5453 5449 5446 5444 5442 5440 5439 5438 5437 5437 5436 5435 5434 5434 5435 5435 5436 5437 5438 5439 5440 5441 5442 5442 5443 5445 5446 5446 5446 5447 5449 5452 5454 5455 5458 5461 5464 5466 5469 5471 5474 5477 5479 5482 5485 5487 5489 5492
5505 5506 5506 5506 5507 5507 5508 5508 5508 5508 5508 5507 5507 5506 5506 5506 5505 5504 5504 5503 5502 5500 5499 5497 5495 5492 5490 5487 5485 5482 5479 5476 5472 5468 5464 5461 5458 5454 5451 5447 5444 5441 5439 5438 5437 5436 5435 5435 5435 5435 5435 5435 5435 5436 5436 5437 5438 5439 5440 5442 5443 5444 5445 5447 5448 5449 5451 5453 5455 5457 5459 5461 5463 5465 5467 5470 5472 5475 5477 5479 5482 5484 5486 5489 5491
5503 5504 5504 5504 5504 5505 5505 5506 5506 5506 5505 5505 5505 5505 5504 5504 5503 5503 5502 5501 5500 5499 5498 5496 5494 5492 5489 5486 5484 5481 5479 5476 5472 5469 5465 5462 5459 5455 5452 5449 5445 5442 5440 5438 5437 5436 5435 5435 5435 5436 5436 5436 5436 5436 5436 5437 5437 5438 5440 5441 5443 5444 5445 5447 5449 5451 5452 5454 5457 5459 5461 5462 5465 5466 5468 5469 5471 5474 5476 5479 5481 5483 5486 5488 5490
5501 5502 5502 5502 5502 5503 5503 5503 5503 5503 5503 5503 5503 5503 5502 5502 5502 5501 5500 5500 5499 5498 5497 5495 5493 5491 5489 5486 5484 5481 5479 5476 5473 5470 5466 5463 5460 5456 5453 5450 5447 5444 5441 5439 5437 5436 5435 5434 5435 5435 5436 5436 5436 5436 5436 5437 5437 5438 5439 5441 5442 5444 5445 5447 5449 5451 5453 5455 5457 5459 5461 5463 5465 5466 5468 5469 5471 5474 5476 5478 5480 5482 5485 5487 5489
5498 5499 5499 5500 5500 5500 5501 5501 5501 5501 5501 5501 5501 5501 5500 5500 5500 5499 5499 5498 5497 5496 5496 5494 5493 5491 5488 5486 5484 5481 5479 5477 5474 5471 5467 5464 5461 5458 5455 5451 5448 5446 5443 5440 5438 5436 5435 5434 5434 5434 5435 5436 5436 5436 5436 5437 5438 5439 5440 5441 5442 5444 5446 5447 5449 5451 5453 5455 5457 5459 5461 5462 5464 5466 5468 5470 5472 5474 5476 5478 5480 5482 5484 5485 5487